Wind_Speed
16 17 18 19 21 22 24 26 28 29 29 29 27 27 28 27 25 24 24 23 21 19 17 16 14 12 10 10 10 10 11 12 13 14 15 17 19 21 21 22 22 22 22 22 22 22 22 23 22 21 22 23 23 22 21 22 23 25 26 27 27 27 27 27 28 28 27 26 25 23 21 20 21 21 22 24 25 24 23 23 23 24 25 27 28
15 17 18 18 19 20 22 25 27 28 29 29 28 28 28 28 27 26 24 23 22 20 19 17 14 13 11 10 11 11 11 12 13 14 16 18 20 21 22 23 23 23 23 23 23 23 23 25 25 24 23 24 24 24 24 24 25 26 27 28 27 27 28 29 29 30 30 28 26 25 23 22 22 23 22 23 25 25 25 25 24 25 26 27 28
16 17 17 17 18 19 20 22 24 26 27 28 28 28 28 28 27 25 24 24 23 22 21 18 15 13 12 11 11 11 12 13 13 15 16 18 20 21 23 24 25 25 26 25 24 23 23 24 25 25 25 25 25 25 25 26 27 28 28 28 29 29 29 30 31 32 32 30 28 27 25 24 24 24 24 24 24 26 27 28 28 28 28 29 30
17 16 16 16 18 18 19 19 21 22 23 25 25 26 26 26 25 25 25 25 24 23 22 19 16 14 13 12 12 11 13 14 15 15 17 19 20 21 23 24 26 27 28 28 26 25 23 24 25 25 25 26 26 25 25 26 27 28 30 30 30 30 31 32 33 33 32 31 29 27 25 25 24 25 25 25 25 26 27 29 30 30 31 31 32
17 17 16 16 17 18 18 18 18 19 20 22 24 25 25 25 25 25 26 25 24 25 23 19 16 15 15 14 12 12 13 15 16 16 17 19 20 22 23 24 26 28 29 29 28 27 25 24 24 24 24 26 27 26 26 27 28 29 30 31 31 31 32 33 34 34 33 31 30 27 26 25 25 27 28 28 27 28 28 29 31 32 33 34 34
18 18 17 17 17 17 18 18 17 17 18 21 23 24 24 25 25 26 27 26 26 26 23 19 18 17 16 14 13 13 14 16 17 17 18 20 21 22 23 24 27 28 29 29 29 28 27 25 24 23 24 25 26 27 27 28 29 30 31 32 32 32 32 33 34 35 35 32 29 28 27 27 28 30 31 31 30 30 30 30 32 34 35 35 36
19 19 18 17 17 17 18 18 18 18 19 21 23 24 23 24 25 26 27 27 28 27 23 20 20 20 17 15 13 13 14 16 17 17 19 20 21 22 23 25 27 28 29 29 29 29 28 27 25 24 24 25 27 28 29 30 31 32 32 33 33 32 33 35 35 36 36 33 29 28 29 30 31 33 34 34 33 32 32 32 32 34 36 36 38
21 20 20 19 18 18 18 19 19 20 21 22 24 24 23 24 25 27 28 28 28 26 23 22 22 20 17 15 14 14 15 16 17 18 19 19 21 22 24 26 27 28 29 30 30 29 29 28 26 25 25 26 27 29 30 31 31 31 33 33 33 33 34 35 36 37 37 34 31 31 32 33 34 35 35 35 36 35 35 33 32 34 36 37 39
24 23 22 19 18 19 20 20 21 22 23 23 23 23 24 25 26 28 28 28 28 26 24 24 23 20 17 16 15 14 15 16 17 18 19 20 21 24 26 27 28 29 30 31 31 31 29 28 27 27 27 27 28 29 30 30 30 31 32 33 33 34 34 36 37 37 38 37 34 34 34 34 35 36 37 38 38 38 36 34 34 36 38 39 40
27 26 23 20 21 22 22 22 22 23 24 24 24 24 24 26 28 28 28 28 28 27 26 24 22 20 18 17 16 15 16 17 17 18 20 21 22 24 27 28 30 32 33 35 35 33 31 29 28 28 29 29 29 30 30 30 31 31 32 33 33 35 35 36 37 38 39 39 36 36 37 36 36 38 38 39 40 38 37 37 39 42 44 45 45
29 29 25 23 25 25 25 24 24 24 24 25 25 25 26 27 28 29 28 29 29 27 26 24 22 20 20 18 16 16 16 16 17 19 21 22 23 24 27 29 32 35 37 39 38 36 33 31 29 29 29 30 31 31 31 31 32 32 32 33 33 35 37 37 38 39 40 40 38 38 38 37 37 38 39 39 40 39 40 43 45 47 48 48 47
28 30 28 27 28 28 27 27 27 26 26 26 26 26 27 28 29 29 29 30 29 28 27 24 22 22 21 19 17 16 16 16 17 20 22 22 23 25 28 30 32 36 39 40 39 36 32 30 29 29 29 30 31 32 32 32 32 32 32 33 34 36 37 37 38 40 40 39 38 38 39 39 39 39 40 41 41 42 43 46 48 49 49 49 47
26 29 31 31 30 30 29 29 29 29 28 28 27 26 27 28 29 30 31 31 31 30 27 25 24 23 21 19 18 17 17 16 18 20 23 23 23 26 28 30 31 34 37 37 34 30 28 28 29 29 30 31 32 33 34 33 32 32 32 33 35 36 37 37 38 40 40 39 38 38 40 41 41 41 42 42 42 43 45 48 49 50 50 48 45
24 28 31 32 31 30 31 31 31 31 31 30 30 29 27 26 28 31 33 33 32 30 28 26 25 23 21 20 19 19 18 17 18 21 23 24 25 27 28 29 31 33 33 33 31 28 28 29 30 30 30 32 32 34 34 34 33 32 32 34 36 37 38 39 39 40 40 39 39 39 39 39 41 42 41 40 41 44 48 50 51 51 50 49 48
26 27 30 31 32 32 32 33 33 34 34 33 32 31 29 27 28 31 34 34 32 31 29 27 26 25 23 21 21 20 19 19 20 22 24 25 25 27 27 27 30 32 32 31 31 31 31 32 32 31 32 32 33 35 35 34 33 33 33 36 38 38 39 40 40 40 41 41 40 38 36 37 40 39 37 39 46 51 53 53 53 53 52 52 52
31 31 31 32 33 33 33 34 36 37 37 36 33 32 31 29 28 30 34 34 33 32 30 29 27 26 24 23 22 21 20 21 22 24 26 25 26 27 28 28 30 32 33 32 32 33 35 36 35 34 33 34 35 36 36 35 34 33 35 37 39 40 41 41 41 41 42 42 39 37 35 36 38 39 41 48 54 57 57 55 54 53 53 53 52
36 36 35 34 34 35 35 35 37 38 39 38 36 34 33 31 28 29 33 34 34 33 31 30 29 27 26 25 23 22 22 23 24 26 27 26 27 29 30 30 32 33 35 35 35 36 38 40 40 39 37 36 37 37 36 35 34 34 36 38 39 40 42 42 42 41 40 38 34 34 37 38 40 44 49 55 59 59 57 55 53 53 54 53 53
40 39 39 37 37 38 38 38 39 40 39 39 38 35 35 33 31 30 32 34 35 34 32 32 31 30 28 26 25 24 24 25 26 28 27 26 28 31 33 33 34 35 36 37 37 38 41 43 44 42 40 38 38 37 36 35 35 35 37 38 39 40 42 42 40 36 34 33 34 37 39 40 42 48 54 58 58 57 54 53 52 53 53 53 54
43 43 41 40 38 38 39 40 41 40 39 39 38 37 36 35 33 32 33 34 35 36 35 34 34 32 29 28 27 27 26 26 28 29 28 27 29 32 34 34 34 36 38 39 40 42 44 45 46 44 40 37 36 36 35 36 35 35 37 38 40 41 41 41 39 34 33 35 39 42 43 44 49 54 57 58 56 53 52 52 52 52 52 52 52
46 47 44 42 40 37 38 41 42 40 38 38 39 39 38 38 37 35 34 35 36 37 37 37 36 34 31 30 30 29 27 27 30 31 30 30 32 34 34 34 36 38 40 41 43 44 46 48 49 44 37 34 34 34 35 36 35 36 38 39 40 41 42 41 39 38 38 39 42 45 48 52 56 58 57 56 54 52 52 51 50 50 49 49 48
49 49 49 47 43 38 38 41 42 40 39 39 40 41 41 40 39 37 36 36 37 39 39 39 38 36 34 32 32 30 29 30 32 32 31 32 35 36 36 36 37 39 41 43 45 45 47 49 46 39 33 32 33 34 35 35 35 37 38 39 40 41 42 41 40 41 41 43 45 48 52 55 56 55 54 53 51 50 49 48 47 47 46 46 46
52 52 51 49 46 42 41 42 42 40 39 41 42 43 43 42 42 41 40 38 38 40 41 41 41 39 37 35 33 32 32 32 34 34 33 35 37 37 37 38 38 39 43 45 45 45 47 46 39 32 30 32 33 34 34 35 36 37 38 39 41 41 41 41 42 42 43 45 47 49 51 52 52 51 50 49 48 47 46 44 44 43 44 44 45
53 54 54 53 52 49 45 45 45 43 41 42 43 43 44 44 44 44 43 41 40 41 43 44 43 41 40 37 36 35 34 35 37 37 36 38 39 39 39 38 38 41 44 45 45 44 43 39 34 31 31 32 33 33 34 35 37 38 39 40 40 40 41 42 43 43 44 45 47 48 48 48 48 47 47 46 45 43 41 41 41 42 43 44 45
54 55 56 57 56 53 49 49 51 49 46 45 45 45 46 47 47 47 47 45 43 42 43 45 44 43 42 40 39 38 38 38 40 40 40 40 40 40 40 39 39 42 44 44 45 43 39 36 33 32 32 33 33 33 34 36 37 38 39 39 40 41 42 42 42 42 43 44 45 45 45 45 45 45 44 42 40 38 38 38 39 41 42 43 44
59 59 58 57 56 54 53 54 55 52 49 48 49 49 49 49 50 50 50 49 47 45 46 46 45 45 45 44 43 42 41 42 43 43 43 42 42 42 41 40 42 44 43 43 43 40 36 35 34 33 33 33 33 34 35 36 38 38 38 39 40 41 42 41 41 41 42 43 43 43 43 43 42 41 38 36 35 35 35 37 38 40 42 43 43
64 64 62 61 60 61 61 60 58 55 52 52 53 53 52 51 51 52 54 54 51 49 50 49 47 47 48 48 48 46 44 44 46 46 46 44 43 43 42 43 46 44 41 41 41 37 35 36 36 35 34 33 33 34 35 37 38 38 38 39 41 41 41 40 40 41 42 42 42 42 42 40 38 36 34 33 33 34 35 37 39 41 42 43 43
61 62 61 61 62 64 66 67 66 64 61 59 59 59 57 54 52 54 58 59 56 54 55 53 50 49 51 51 50 49 48 47 47 48 49 47 46 46 45 46 48 45 40 40 39 36 36 37 36 35 34 33 33 34 36 37 37 38 39 40 40 40 40 40 40 41 41 41 41 40 39 36 33 32 31 31 32 34 36 38 39 40 42 42 42
56 57 57 58 59 61 64 66 68 69 69 67 66 65 63 60 57 56 58 60 60 60 59 56 53 52 54 55 54 52 51 50 50 51 50 48 48 48 47 48 49 44 39 39 38 36 36 37 36 35 34 33 33 35 36 37 37 38 39 40 40 40 40 40 40 40 40 39 38 36 34 32 30 30 30 31 33 35 37 38 39 40 41 41 41
56 56 56 57 59 60 62 63 65 66 68 69 69 69 66 64 64 63 63 63 64 63 62 60 57 56 58 59 57 55 54 52 52 52 50 49 50 50 50 51 48 41 38 38 37 36 36 36 35 34 33 33 34 35 36 37 38 38 39 39 40 40 40 40 40 39 38 36 35 33 31 30 29 29 30 32 34 36 37 38 38 39 40 40 40
56 56 57 59 60 62 63 65 66 67 67 67 66 66 67 67 70 72 70 65 64 65 66 65 62 61 62 63 59 56 56 54 53 53 52 52 52 52 52 51 45 39 37 38 36 36 36 35 34 33 33 34 34 35 36 37 37 38 39 39 40 41 41 40 39 36 34 33 32 31 30 28 28 29 31 33 34 35 36 37 38 38 39 40 40
55 57 59 61 62 64 66 68 70 71 72 71 68 67 69 72 76 80 77 67 60 63 66 67 66 65 64 63 59 57 57 56 55 56 57 55 55 55 53 48 41 37 37 37 36 36 36 34 33 33 33 34 34 35 35 36 37 38 38 39 40 41 40 38 36 33 31 31 31 29 28 27 28 30 32 33 34 35 36 36 37 38 39 39 39
56 57 59 60 63 66 70 73 75 75 75 75 74 73 76 78 79 82 83 72 60 59 64 66 68 67 64 60 57 56 56 57 57 58 58 57 59 57 50 42 37 37 36 36 36 36 34 33 33 33 33 34 34 34 35 36 36 37 38 39 40 40 38 35 32 31 30 30 29 27 26 26 28 30 31 32 33 34 35 36 36 37 38 39 39
56 57 58 60 63 66 71 77 82 82 79 77 77 77 80 80 75 76 83 79 65 60 62 64 65 66 62 58 55 54 56 58 58 58 59 61 61 53 42 37 36 36 36 36 36 34 33 33 33 33 33 33 33 34 35 35 36 37 38 39 39 37 34 32 30 30 30 28 27 25 25 27 29 30 31 32 33 33 34 35 36 37 37 38 39
52 54 57 61 63 66 69 71 73 77 77 76 78 79 79 76 68 67 75 77 68 61 63 66 64 62 59 58 56 56 57 59 58 58 62 63 55 43 35 35 36 36 36 36 35 34 33 33 33 33 33 32 32 33 34 35 35 36 37 38 37 35 31 30 29 29 28 26 25 25 26 27 29 30 31 32 32 33 34 34 35 35 36 37 38
48 51 54 57 61 64 63 55 50 56 61 65 71 74 75 73 68 62 62 67 67 64 66 68 66 62 58 56 57 58 59 57 56 59 63 57 45 35 34 36 36 36 36 35 34 33 33 33 33 33 32 31 32 33 34 34 35 36 37 37 35 31 29 28 28 27 26 24 24 24 26 27 29 30 30 31 32 32 33 33 34 35 35 36 37
47 48 49 50 52 53 48 38 30 30 38 47 53 57 60 60 55 47 47 58 66 67 66 64 62 60 58 56 57 58 57 56 58 61 58 48 38 35 36 36 37 37 36 34 34 33 33 33 33 32 31 31 32 32 33 34 35 35 36 35 32 29 27 26 26 26 24 23 23 24 26 27 28 29 30 30 31 32 32 33 34 34 34 35 36
41 39 37 37 36 35 33 29 25 28 37 45 45 43 43 42 39 39 47 57 62 60 57 56 56 57 56 55 55 55 57 59 60 56 46 39 36 36 36 36 37 36 34 34 34 33 33 33 32 30 30 30 31 31 32 33 34 34 34 33 30 27 26 26 26 24 23 22 23 24 26 27 28 28 29 29 30 31 31 32 33 33 34 35 35
35 33 30 29 27 22 19 19 22 32 41 43 39 38 40 41 42 45 50 53 51 46 46 50 54 55 54 54 54 56 58 58 54 45 38 35 36 36 36 36 36 34 33 34 34 33 33 32 31 30 30 30 30 31 31 32 33 33 33 31 27 25 25 25 24 23 22 22 23 24 25 26 27 27 27 28 29 29 30 31 32 33 34 34 35
32 31 27 24 22 19 16 14 12 14 18 21 24 31 35 39 45 49 47 40 34 34 39 45 49 50 50 52 56 59 57 51 44 39 37 36 36 36 36 36 34 33 33 34 33 33 32 31 30 29 29 29 29 30 30 31 32 32 31 28 26 25 25 24 23 22 21 21 23 24 25 25 25 25 25 26 27 28 29 31 32 33 34 34 35
27 27 24 21 21 21 22 22 18 13 11 13 17 21 25 29 34 36 30 24 25 29 36 41 45 47 50 54 57 55 50 44 40 38 37 36 36 36 35 34 33 33 33 33 33 32 31 30 29 29 29 29 28 28 29 31 32 31 28 26 25 25 25 23 22 21 21 21 23 24 24 24 23 23 24 25 26 27 28 30 31 32 33 34 34
23 23 21 20 20 20 20 20 17 14 14 15 16 17 18 18 19 20 21 22 25 29 35 40 44 47 51 53 50 44 41 40 39 37 36 36 36 35 34 33 33 33 33 32 31 31 30 29 29 29 28 28 27 27 28 30 30 29 26 24 24 25 23 21 20 20 20 21 23 23 23 22 21 21 22 24 25 26 27 29 31 32 33 34 34
22 21 19 18 18 17 16 15 14 13 13 13 13 14 16 17 18 20 23 26 28 31 36 41 43 46 49 47 42 38 38 38 38 37 37 35 34 33 32 33 33 33 32 31 30 29 29 29 29 29 28 27 26 25 27 29 29 28 25 23 24 24 22 20 20 20 20 21 22 22 21 20 20 20 22 23 24 26 27 28 30 32 33 34 35
21 20 18 18 18 17 15 14 14 14 15 15 16 17 18 20 22 25 27 30 33 35 38 41 43 45 45 42 38 37 38 38 37 37 36 34 32 32 32 32 32 32 31 30 29 29 30 30 29 28 27 25 24 24 26 28 28 27 24 23 23 23 21 20 19 20 20 21 22 21 20 19 19 20 21 23 25 26 27 28 30 31 33 34 35
19 18 18 18 18 18 19 19 19 19 19 20 21 22 23 25 26 28 31 35 38 40 43 44 43 42 41 39 38 38 39 38 37 35 33 32 31 31 31 32 32 31 30 29 29 30 30 30 29 27 26 24 23 23 25 26 26 25 23 23 23 22 20 19 19 19 20 21 21 20 19 19 19 20 22 23 25 27 28 29 30 31 32 34 35
20 19 18 19 19 20 21 22 22 21 22 23 26 28 29 29 30 32 34 37 39 40 41 42 41 41 40 40 39 38 37 35 33 31 30 30 31 32 33 33 32 31 30 29 29 30 30 30 28 26 25 23 22 22 23 24 24 23 23 23 22 21 20 19 19 19 20 21 21 20 19 19 20 21 22 24 26 27 28 29 30 31 32 33 34
24 24 22 22 23 25 25 25 25 27 28 29 29 30 32 34 36 36 35 36 37 39 39 40 41 42 41 38 36 34 32 29 28 27 28 30 32 33 33 32 31 31 30 30 30 31 30 29 27 26 24 23 22 22 22 22 22 22 23 22 21 21 20 19 18 19 20 21 21 21 20 20 21 22 23 25 26 27 28 29 30 31 32 32 33
31 31 30 28 28 29 29 28 29 31 33 33 32 33 34 34 32 30 30 30 31 31 32 34 35 34 32 29 27 26 26 26 26 27 28 30 32 32 32 32 32 31 31 30 31 31 30 28 27 25 24 22 22 22 21 21 21 22 22 22 21 20 20 19 19 20 21 21 22 21 21 21 22 23 24 25 26 27 28 29 30 31 31 32 33
35 35 35 33 31 31 31 31 32 31 31 31 31 31 29 26 24 23 24 24 23 22 24 25 24 22 22 23 25 26 27 28 29 29 30 31 32 33 33 33 33 32 31 31 31 30 29 28 27 25 24 23 23 23 22 21 21 22 22 21 20 20 20 20 20 21 22 22 22 22 22 22 23 23 24 25 27 28 29 29 30 31 31 32 32
35 35 34 33 31 30 30 30 30 29 27 26 27 26 25 24 24 24 25 25 24 24 26 26 25 23 24 26 29 30 31 32 32 32 33 33 34 35 35 34 33 32 31 31 31 30 29 28 27 26 25 24 24 23 22 21 21 21 22 21 20 20 20 20 21 22 23 23 23 23 24 24 24 24 25 26 27 28 29 29 30 30 31 31 32
32 33 32 31 30 29 29 29 30 29 27 25 26 27 27 25 25 25 26 26 27 28 29 30 30 30 30 30 31 33 34 34 34 34 35 35 35 35 35 34 33 32 32 31 30 30 30 29 28 27 26 25 24 23 22 21 21 21 21 21 20 21 21 21 22 23 23 24 24 25 25 25 25 25 26 26 27 28 29 29 30 30 31 31 32
31 31 31 30 30 28 28 28 29 29 29 29 30 31 30 28 26 27 27 27 29 31 32 31 32 33 34 35 36 37 36 36 36 35 35 35 35 35 34 33 33 33 32 31 31 30 30 30 28 27 27 26 25 23 23 22 21 21 21 21 21 22 22 22 23 24 24 25 26 26 26 27 27 27 27 27 27 28 29 30 30 30 31 31 32
Wind_Direction
267 268 265 260 254 250 248 247 247 247 249 251 251 251 252 253 252 250 251 252 253 249 242 238 240 244 251 261 269 276 287 298 305 311 316 321 326 331 336 340 342 343 342 339 338 338 335 332 333 333 328 325 326 326 326 325 324 324 324 323 323 324 325 325 323 322 319 317 314 309 303 299 299 299 294 288 284 282 282 282 282 281 281 280 279
265 266 266 264 260 255 251 249 248 248 249 251 251 251 252 252 252 249 248 249 249 245 240 237 237 241 249 259 266 275 285 294 302 309 314 319 325 329 333 337 340 341 342 341 339 339 337 333 332 331 328 325 325 326 326 326 325 324 323 323 323 324 324 324 322 321 320 318 315 311 307 302 301 303 301 296 291 286 284 283 282 281 280 279 279
261 264 266 266 263 259 255 253 251 250 250 251 252 252 251 250 249 246 242 243 245 242 238 236 237 241 248 256 264 275 285 292 299 306 311 316 323 328 332 337 340 340 341 341 341 340 337 332 330 329 326 323 324 325 326 326 326 324 324 324 325 325 325 323 321 320 319 318 315 310 307 304 304 305 306 303 299 293 287 284 283 282 281 280 280
258 264 267 266 265 262 260 258 255 254 252 251 250 250 248 247 244 240 238 240 241 239 237 235 236 240 247 253 262 274 283 289 296 302 308 314 320 327 333 338 342 342 342 341 341 340 336 331 327 325 323 321 322 324 325 325 324 323 323 324 324 324 323 321 319 318 317 316 314 310 306 304 304 305 305 303 301 297 291 285 282 281 280 280 280
258 263 266 268 268 267 265 263 260 256 252 249 247 247 246 244 241 238 237 237 236 234 235 234 235 239 244 250 260 272 279 286 294 300 307 313 319 326 333 339 343 345 344 342 341 340 336 330 326 323 320 318 319 321 322 322 322 321 321 321 321 321 320 318 317 316 315 312 310 309 306 305 304 303 301 301 299 296 292 287 282 278 277 278 280
257 263 268 272 273 270 267 266 263 256 250 246 245 246 245 244 241 238 235 232 230 230 232 232 233 237 241 247 256 265 274 283 291 300 308 314 319 326 333 338 342 343 344 342 342 341 337 332 327 323 319 317 318 320 320 320 320 320 319 319 319 318 317 315 315 314 313 309 306 306 306 306 304 301 301 300 298 295 293 289 285 282 280 280 282
255 261 266 272 275 273 267 262 259 254 247 245 245 245 244 243 240 236 232 227 226 229 230 231 232 235 238 243 250 258 269 280 290 301 309 315 322 328 333 336 339 341 341 340 340 340 338 335 330 325 321 319 319 319 319 320 320 319 318 318 318 317 315 314 313 313 311 308 304 304 305 306 304 301 302 302 299 296 294 291 287 286 286 286 287
255 259 263 268 274 275 269 262 256 252 248 246 246 246 244 242 238 233 229 226 227 229 230 230 231 234 236 240 245 254 267 279 290 301 309 318 325 330 333 334 336 338 338 337 337 337 337 336 332 328 324 321 320 320 319 320 320 319 319 319 319 317 314 313 312 312 310 307 304 302 302 303 302 301 302 301 299 297 296 294 290 287 287 289 290
253 257 260 267 271 271 270 267 261 255 251 248 249 249 245 241 237 232 229 228 229 231 231 230 232 235 237 238 242 252 266 278 290 301 310 320 327 330 331 331 332 334 334 334 334 333 333 333 331 329 326 324 323 322 322 322 322 321 321 321 319 317 314 312 311 310 309 307 303 299 298 300 300 301 302 301 300 299 298 297 295 293 293 293 294
250 255 260 267 269 267 268 269 267 263 258 252 248 248 246 241 237 234 231 230 231 232 231 231 234 237 237 237 242 254 267 278 291 303 311 320 326 328 328 329 330 330 329 329 328 327 328 329 328 327 326 325 325 325 325 324 325 324 322 321 319 316 313 311 310 309 306 305 302 298 298 300 300 302 303 302 301 301 299 298 299 298 297 297 297
249 254 259 263 264 265 266 268 269 269 266 259 251 247 246 244 240 237 234 233 233 233 232 232 235 236 235 238 246 257 268 280 294 305 311 317 322 326 327 328 328 327 325 324 321 320 321 323 325 325 325 325 326 326 326 325 325 325 323 320 317 313 311 311 309 307 305 304 302 299 298 298 298 300 300 299 299 299 298 298 298 297 297 298 299
251 255 259 261 262 265 267 267 268 269 269 266 259 251 248 246 243 240 239 238 237 234 232 234 235 233 235 240 250 259 269 283 296 303 306 312 319 324 326 327 326 325 324 321 317 314 315 319 323 324 324 325 325 324 325 325 326 325 322 319 314 310 309 308 306 305 304 302 302 301 298 295 294 296 296 295 295 296 296 296 296 295 296 297 298
253 254 257 260 263 265 266 266 267 269 269 267 263 258 253 250 247 244 243 241 239 235 234 235 234 233 238 245 252 260 271 284 294 298 302 308 316 321 323 324 324 323 323 324 321 316 315 318 322 323 323 323 323 322 322 324 325 323 320 316 311 308 307 306 304 304 303 302 302 301 297 294 293 295 296 295 296 297 297 296 296 296 297 297 296
253 250 253 257 261 263 264 266 268 269 268 264 262 262 261 256 251 247 245 244 240 236 235 235 234 236 242 248 254 262 272 282 289 294 299 306 313 318 320 322 323 322 323 327 331 327 322 320 321 321 321 321 320 319 320 322 323 321 318 314 310 308 308 306 304 303 302 302 303 299 296 294 293 294 295 296 298 300 299 298 298 297 297 296 294
256 252 252 255 257 259 262 266 268 269 268 264 261 264 266 263 256 250 247 246 242 237 236 235 235 239 245 249 256 264 272 279 286 292 297 304 311 316 316 317 320 322 323 327 331 329 325 322 320 319 319 318 317 316 317 319 320 319 316 312 309 308 308 306 304 302 301 301 301 298 296 293 291 290 291 294 299 303 302 301 300 298 298 297 295
255 255 256 257 259 259 260 263 267 269 268 266 264 267 269 267 261 255 251 248 243 238 236 236 238 242 247 251 257 264 271 278 285 290 295 302 309 311 309 310 315 320 322 324 327 327 325 322 320 318 317 315 314 314 315 315 316 317 314 310 308 309 308 306 305 304 303 300 297 296 297 292 288 289 292 296 300 303 303 301 300 299 298 298 298
255 256 257 259 260 260 260 261 264 266 267 267 268 269 270 267 264 260 256 251 246 241 240 240 242 244 247 252 258 264 270 277 283 288 293 301 307 306 305 308 313 316 319 320 322 324 324 322 320 318 315 313 311 311 311 312 313 314 312 309 308 308 307 307 308 308 304 297 294 294 294 289 285 287 292 297 300 301 301 300 300 300 300 300 300
258 259 260 260 260 261 261 261 262 262 263 266 267 267 267 266 265 262 259 254 248 243 242 242 243 245 248 254 259 263 269 276 282 287 292 299 303 302 302 307 311 312 314 316 319 322 321 319 318 316 313 309 307 307 308 309 310 310 310 308 306 306 307 308 310 309 301 293 292 293 290 285 283 287 293 298 300 300 300 301 302 302 302 302 301
261 262 263 263 263 262 261 259 257 256 257 261 264 263 263 264 263 259 258 255 249 243 242 243 244 247 250 254 258 262 268 276 282 286 290 297 301 301 301 305 309 310 312 315 318 319 318 316 315 313 308 304 303 305 305 307 309 309 308 307 305 305 306 306 306 305 298 291 288 287 285 285 288 292 297 300 301 302 304 304 304 304 304 303 302
261 262 262 263 262 261 258 255 253 251 251 254 258 259 258 260 260 257 256 255 249 243 242 244 246 248 251 254 258 263 269 276 280 283 288 295 298 299 301 304 307 309 312 314 314 314 313 312 310 308 303 299 300 302 303 305 307 306 306 305 304 304 305 305 304 303 299 293 288 285 285 289 293 297 300 302 304 306 306 306 306 306 306 305 304
261 261 261 262 261 257 253 251 250 248 245 245 249 253 254 256 257 257 256 253 249 244 243 245 247 248 251 254 258 264 270 274 277 281 287 293 295 296 300 303 305 307 309 310 310 311 311 310 308 302 297 296 298 300 302 303 304 304 305 305 304 303 303 303 302 301 299 295 290 289 290 294 297 300 302 304 306 307 308 308 308 308 307 306 305
259 260 259 260 260 257 252 249 248 246 244 243 243 246 250 252 253 255 255 253 249 245 244 246 247 248 252 255 259 264 268 271 275 280 285 289 291 294 297 300 302 305 306 306 308 310 311 310 306 298 294 296 298 298 300 302 303 304 305 305 304 303 303 302 303 302 300 297 295 295 297 300 302 303 305 307 308 309 310 310 310 309 309 309 308
260 261 261 260 260 259 254 249 246 243 241 243 243 244 247 249 249 251 253 253 249 245 245 246 247 249 254 256 258 262 267 271 274 277 281 285 288 292 294 297 301 303 303 304 307 309 308 307 304 298 296 296 296 297 300 302 303 304 305 305 304 303 304 305 305 304 301 299 299 300 302 303 304 305 307 309 310 311 312 312 312 312 312 311 310
262 263 263 262 262 260 257 254 254 248 240 238 241 243 244 247 247 247 248 250 249 245 244 247 249 251 255 258 259 262 266 270 272 274 278 282 286 289 291 294 298 299 300 304 307 306 304 303 301 297 296 296 296 298 301 303 304 306 306 306 305 305 306 306 305 304 302 302 303 304 304 305 306 307 309 310 311 312 313 313 314 314 314 313 312
266 266 266 264 264 266 265 264 265 260 249 243 243 243 244 247 249 247 246 246 246 245 245 247 250 253 255 257 260 262 264 268 271 273 276 280 284 287 289 292 295 296 299 304 306 304 301 300 298 296 296 297 298 301 303 303 305 307 307 306 307 308 308 307 306 305 305 305 306 306 305 306 308 309 311 312 313 314 316 316 316 316 317 317 316
267 267 266 266 266 268 269 269 269 266 258 250 247 246 245 246 248 249 247 244 243 243 245 246 249 253 255 256 258 261 263 267 270 272 275 279 282 285 287 290 292 294 298 303 303 301 299 297 297 296 297 299 301 303 303 304 306 307 308 309 310 310 309 309 308 307 308 308 308 307 307 308 310 312 313 314 315 317 318 318 318 319 320 320 320
266 266 265 265 264 265 266 267 268 267 264 258 253 250 245 243 245 248 249 247 242 240 242 245 247 251 254 256 258 259 262 265 268 271 274 277 281 283 285 289 291 294 298 302 301 298 297 296 295 297 299 302 304 303 303 305 307 309 310 311 310 310 310 310 310 309 310 310 309 308 309 310 312 313 314 316 316 317 318 319 320 321 323 324 324
266 267 267 266 264 263 263 263 264 265 265 263 260 256 250 245 243 246 250 250 247 241 239 241 245 248 251 254 256 257 260 263 266 270 273 276 279 282 285 288 291 293 297 300 298 296 295 295 295 298 301 303 304 303 303 306 308 310 311 311 311 311 311 311 312 312 311 310 309 309 310 312 313 314 315 316 316 317 318 319 321 323 325 326 326
265 267 267 267 266 265 264 263 262 262 261 260 261 260 258 252 247 244 246 248 247 243 239 238 239 243 247 250 252 255 257 260 264 267 271 275 278 281 284 288 290 292 295 297 296 294 293 294 296 299 301 302 302 302 304 308 310 311 311 311 312 313 313 314 314 314 312 310 309 309 310 312 312 314 315 316 317 318 319 321 323 325 327 328 327
262 263 264 264 265 265 265 264 263 262 260 259 258 259 260 257 251 245 243 245 245 242 239 236 235 238 243 246 248 252 255 258 263 266 269 272 276 278 282 286 288 291 294 295 293 292 292 294 297 299 300 300 300 302 305 308 310 310 311 312 314 315 316 316 315 313 311 309 308 309 310 311 312 314 316 317 318 319 320 322 324 327 329 330 328
263 264 265 266 266 267 267 266 265 263 261 260 259 257 255 254 251 245 242 244 244 239 236 236 236 237 241 244 247 251 254 257 261 264 267 270 273 275 279 283 286 289 293 293 291 290 291 294 296 297 298 298 300 304 306 308 309 310 312 314 316 317 317 316 315 313 311 309 308 309 310 310 312 315 317 318 319 320 321 323 325 328 330 331 330
268 269 270 269 270 270 269 267 266 263 260 258 257 255 252 252 252 247 241 239 240 237 234 234 236 238 241 244 247 251 254 255 259 263 266 269 271 273 277 282 285 289 292 291 288 288 291 293 295 295 296 298 301 304 306 307 309 311 314 317 318 318 318 317 316 314 311 309 308 308 309 310 314 317 318 319 320 321 322 324 326 328 331 332 332
272 273 272 272 271 268 268 268 264 260 257 254 250 250 251 252 254 250 241 235 235 235 233 232 236 239 241 243 248 254 255 255 259 263 265 267 269 272 277 282 285 289 291 288 286 288 291 292 293 293 294 298 302 304 305 307 310 314 317 318 319 319 319 318 316 313 311 309 308 308 310 313 316 318 319 320 321 322 323 325 326 328 330 333 334
274 273 273 272 270 269 274 274 263 252 251 250 246 247 249 251 253 251 241 231 228 230 232 234 238 242 243 245 250 254 254 255 259 262 265 267 270 273 278 284 286 289 288 286 285 288 290 291 291 291 294 298 302 303 305 309 312 316 318 320 320 321 321 319 315 312 310 308 307 309 312 315 318 319 320 321 323 324 325 325 326 328 330 333 335
275 275 276 277 276 278 281 276 256 245 246 245 243 245 249 250 254 255 242 226 221 224 230 234 239 242 243 246 250 253 253 256 260 262 264 267 271 277 282 285 287 287 286 284 285 287 288 288 289 290 294 298 301 303 307 311 314 317 319 321 322 322 321 317 312 309 306 305 306 308 312 316 318 320 321 323 324 325 326 326 327 328 330 333 336
280 281 283 283 282 282 280 271 257 254 254 249 245 246 249 250 250 243 223 211 212 220 227 234 238 239 241 246 251 252 253 256 260 262 263 266 272 280 284 286 286 285 284 283 284 285 286 286 286 289 294 298 300 304 309 312 316 319 321 322 323 322 318 313 308 305 303 302 304 308 312 316 320 322 324 325 326 327 328 328 329 330 331 333 335
284 285 288 289 288 284 278 267 249 236 241 248 249 245 239 233 223 209 200 201 208 218 227 234 237 238 242 247 250 251 253 256 258 260 262 267 274 281 285 286 284 282 281 281 283 283 283 283 285 289 293 297 301 305 310 313 317 320 322 323 322 319 314 309 304 302 301 301 304 309 314 319 322 324 326 327 328 328 329 330 330 331 332 334 335
285 284 289 296 296 287 274 262 236 219 224 234 235 223 214 208 200 196 196 199 207 219 230 235 237 239 243 247 249 251 254 256 258 260 265 272 278 283 284 283 280 278 278 280 281 280 280 282 285 289 293 297 301 306 310 314 318 320 322 322 320 315 310 306 302 300 300 301 306 311 316 321 324 326 327 329 330 331 332 333 333 333 333 334 335
288 286 285 286 284 272 259 260 253 226 214 211 200 192 188 185 185 189 193 201 215 229 234 235 238 240 243 246 250 252 254 256 259 264 269 276 281 282 280 277 275 275 277 277 277 277 279 281 284 289 293 297 301 305 311 315 318 321 322 321 317 312 308 303 299 298 299 302 308 313 318 322 325 327 330 332 334 335 336 337 337 336 335 335 335
292 289 279 269 266 265 263 263 264 253 232 215 203 194 186 181 183 191 205 225 238 236 233 235 239 241 244 248 252 255 256 259 263 268 273 278 279 277 273 271 271 272 273 273 274 275 278 280 285 289 293 296 300 306 312 316 318 320 321 318 313 309 305 300 296 296 298 303 310 315 319 323 326 329 333 335 338 340 340 340 340 339 338 336 336
290 288 281 270 263 261 262 262 260 252 242 235 228 221 217 216 218 228 245 256 250 239 238 241 244 247 251 254 256 260 262 263 266 271 275 277 275 271 268 267 267 268 269 270 272 274 277 280 285 289 292 295 300 306 313 316 318 318 318 315 310 305 300 295 293 294 297 304 310 315 319 323 326 330 335 337 339 341 341 342 342 341 339 338 337
280 279 279 275 269 266 266 267 268 265 260 255 252 251 254 257 258 259 260 260 256 252 250 251 254 258 261 261 261 263 264 265 269 275 276 273 269 264 263 264 265 266 268 270 272 274 277 280 284 288 291 295 300 307 312 315 316 316 315 312 306 301 295 290 289 291 297 304 310 314 318 321 325 330 334 336 337 338 339 340 341 341 340 339 338
273 273 275 276 273 270 267 269 272 272 270 267 264 261 259 258 257 256 255 256 258 259 258 258 260 263 263 262 262 265 268 270 272 273 271 267 262 260 261 263 264 266 268 270 271 273 276 280 283 287 290 294 300 307 311 313 313 313 312 308 301 296 289 285 285 289 296 304 309 312 315 318 322 327 329 331 332 334 335 337 338 339 339 339 339
265 268 272 276 277 272 267 269 273 274 272 270 267 263 260 259 258 258 259 260 261 262 262 262 262 262 262 264 266 268 270 270 269 266 262 258 256 257 260 262 264 266 268 268 270 273 276 279 283 286 289 293 300 306 309 310 310 310 307 302 296 289 282 280 283 289 296 302 307 309 311 314 318 322 324 326 328 331 333 334 335 336 337 338 339
268 269 272 274 275 272 270 270 271 271 273 274 272 268 266 265 264 265 266 266 266 265 264 263 262 262 264 265 266 267 267 264 259 254 251 250 252 256 260 262 264 265 266 267 269 272 275 278 281 284 288 293 299 304 305 305 304 304 301 296 290 283 278 278 282 289 296 301 304 306 307 309 313 317 320 324 326 329 331 332 333 334 335 337 338
269 274 278 277 272 268 265 263 264 266 270 274 274 271 267 266 266 268 270 270 269 268 265 262 260 260 262 263 262 261 256 249 244 244 247 251 255 258 260 262 263 264 265 267 269 272 274 277 280 283 286 292 297 300 299 298 298 297 295 291 285 279 276 277 282 288 294 299 301 302 302 304 308 312 317 321 325 327 329 331 332 333 333 335 336
267 272 276 276 272 266 262 262 264 267 269 271 272 271 268 267 266 266 265 264 265 265 262 259 258 258 257 255 251 244 237 235 240 248 254 257 258 259 260 261 262 263 264 267 268 270 273 276 278 281 284 289 292 294 293 292 292 292 290 286 280 276 274 275 280 286 291 295 297 297 297 299 303 309 314 319 322 325 327 329 330 331 332 334 335
271 273 275 274 270 265 263 262 263 265 267 267 267 264 262 261 260 257 253 251 251 250 249 251 253 250 242 236 233 232 233 240 249 255 258 260 260 260 261 261 261 262 264 265 267 269 272 274 276 278 281 284 288 289 290 289 288 286 284 280 276 272 270 272 277 282 288 291 292 293 293 295 299 305 311 316 320 322 325 327 328 329 331 332 334
271 272 273 271 267 264 261 259 258 258 259 259 258 255 254 255 256 254 248 242 238 238 241 244 244 241 237 235 235 237 242 249 254 258 260 261 260 260 260 260 261 262 263 264 267 269 270 272 274 276 279 282 286 288 288 287 284 280 278 275 271 267 266 268 274 280 285 288 289 290 290 291 295 301 307 312 317 320 323 325 326 327 329 331 332
269 268 267 265 263 261 259 257 255 254 253 253 254 256 256 254 249 244 240 235 232 234 238 240 240 241 245 248 248 247 251 255 258 259 260 259 259 260 261 262 262 263 263 265 267 268 269 272 274 276 279 282 284 285 285 284 278 274 271 268 265 262 263 266 272 278 282 285 286 287 288 289 292 298 303 309 313 317 320 323 324 325 327 328 331
266 265 264 264 263 261 258 257 257 257 257 255 254 253 251 246 238 235 234 234 233 236 242 248 251 252 253 254 253 254 257 259 260 260 260 260 260 261 262 262 263 264 264 266 267 268 270 272 274 276 279 280 280 281 282 279 272 267 264 262 260 259 261 265 271 277 280 283 284 285 286 287 289 294 299 305 310 314 318 320 322 323 324 326 329
Height
5889 5890 5890 5891 5892 5893 5893 5894 5895 5895 5895 5896 5897 5898 5898 5899 5900 5900 5900 5901 5902 5902 5903 5903 5903 5904 5904 5904 5905 5905 5904 5904 5904 5903 5903 5902 5901 5901 5900 5899 5897 5896 5894 5892 5890 5889 5887 5885 5883 5882 5881 5880 5879 5878 5878 5877 5876 5874 5873 5872 5871 5870 5869 5867 5866 5865 5864 5863 5862 5862 5861 5860 5859 5859 5858 5857 5856 5855 5854 5853 5852 5851 5849 5848 5847
5887 5887 5888 5888 5889 5890 5890 5891 5892 5892 5893 5894 5894 5895 5896 5896 5897 5897 5898 5899 5899 5900 5900 5901 5901 5901 5902 5902 5902 5903 5903 5902 5902 5902 5901 5900 5899 5899 5898 5897 5895 5894 5892 5891 5889 5887 5885 5883 5882 5881 5880 5878 5878 5877 5876 5875 5874 5873 5872 5870 5869 5868 5867 5865 5863 5862 5861 5860 5859 5858 5858 5857 5856 5855 5854 5853 5852 5852 5851 5849 5848 5847 5846 5844 5843
5884 5885 5885 5886 5887 5887 5887 5888 5889 5890 5891 5891 5892 5893 5893 5894 5894 5895 5896 5896 5896 5897 5897 5898 5899 5899 5899 5900 5900 5901 5900 5900 5900 5900 5899 5899 5898 5897 5896 5895 5893 5892 5890 5889 5887 5886 5884 5882 5880 5879 5878 5877 5876 5875 5874 5873 5872 5870 5869 5868 5867 5866 5864 5863 5861 5859 5857 5856 5856 5855 5854 5853 5852 5851 5850 5849 5848 5848 5846 5845 5844 5843 5841 5840 5839
5882 5883 5883 5884 5884 5884 5885 5886 5886 5887 5888 5889 5889 5890 5890 5891 5892 5893 5893 5894 5894 5895 5895 5896 5896 5896 5897 5897 5898 5898 5898 5898 5898 5898 5898 5897 5896 5895 5894 5893 5891 5890 5888 5886 5885 5884 5882 5881 5879 5878 5877 5875 5874 5873 5872 5871 5870 5868 5867 5866 5865 5863 5862 5860 5858 5856 5854 5853 5852 5851 5850 5849 5848 5846 5845 5844 5844 5842 5841 5840 5839 5837 5836 5835 5834
5880 5881 5881 5882 5882 5882 5882 5883 5884 5885 5886 5886 5887 5887 5888 5889 5889 5890 5891 5891 5892 5892 5893 5893 5894 5894 5894 5895 5896 5896 5896 5896 5896 5896 5896 5895 5894 5893 5892 5891 5889 5888 5886 5884 5883 5882 5881 5879 5878 5877 5875 5874 5872 5871 5870 5869 5867 5866 5864 5863 5862 5860 5859 5858 5856 5854 5852 5850 5848 5848 5847 5846 5844 5842 5841 5840 5838 5837 5836 5835 5834 5833 5831 5830 5829
5879 5879 5880 5880 5880 5880 5881 5881 5882 5883 5883 5884 5884 5885 5885 5886 5887 5887 5888 5889 5890 5890 5891 5892 5892 5892 5892 5893 5893 5894 5894 5894 5894 5894 5893 5893 5892 5891 5890 5889 5887 5886 5884 5883 5881 5880 5879 5877 5876 5875 5873 5872 5871 5869 5868 5867 5865 5863 5861 5860 5859 5858 5856 5854 5853 5851 5849 5847 5846 5844 5843 5842 5840 5838 5836 5836 5835 5833 5832 5831 5829 5828 5827 5826 5825
5877 5878 5878 5878 5879 5879 5879 5880 5880 5881 5881 5881 5882 5883 5884 5884 5884 5885 5886 5886 5887 5888 5889 5890 5890 5890 5890 5891 5891 5892 5892 5892 5891 5891 5891 5891 5890 5889 5888 5887 5885 5884 5882 5881 5879 5878 5877 5875 5874 5872 5871 5870 5869 5867 5866 5864 5863 5861 5859 5857 5856 5854 5853 5851 5849 5847 5846 5844 5843 5841 5839 5838 5835 5833 5832 5831 5830 5829 5828 5827 5825 5823 5822 5822 5820
5875 5876 5876 5877 5877 5878 5878 5878 5878 5879 5879 5879 5880 5881 5882 5882 5882 5882 5883 5884 5885 5886 5887 5887 5887 5888 5888 5889 5889 5889 5890 5889 5889 5889 5889 5888 5888 5886 5886 5884 5883 5882 5880 5878 5877 5876 5874 5873 5871 5870 5869 5867 5866 5865 5863 5862 5860 5858 5856 5854 5853 5851 5849 5847 5845 5844 5842 5841 5840 5838 5835 5833 5831 5829 5828 5827 5825 5824 5822 5821 5821 5819 5818 5817 5815
5873 5874 5875 5875 5876 5876 5876 5876 5877 5877 5877 5878 5879 5880 5880 5880 5880 5880 5881 5882 5883 5884 5885 5885 5886 5886 5886 5886 5887 5887 5887 5887 5887 5887 5886 5886 5885 5884 5883 5882 5881 5879 5878 5876 5875 5873 5872 5871 5869 5868 5866 5865 5864 5862 5861 5859 5857 5855 5853 5851 5849 5847 5846 5844 5842 5840 5839 5837 5836 5833 5831 5829 5826 5825 5824 5822 5820 5819 5817 5816 5815 5814 5813 5811 5809
5870 5871 5873 5874 5875 5874 5874 5875 5875 5875 5875 5876 5877 5878 5878 5878 5878 5878 5880 5880 5881 5882 5882 5883 5884 5884 5884 5884 5885 5885 5885 5885 5885 5884 5883 5883 5883 5882 5881 5879 5878 5877 5875 5873 5872 5871 5869 5868 5866 5865 5863 5862 5861 5859 5857 5856 5854 5852 5849 5847 5845 5843 5841 5840 5838 5836 5834 5833 5831 5828 5826 5825 5822 5820 5819 5817 5815 5814 5813 5811 5810 5808 5806 5805 5803
5868 5869 5871 5872 5872 5872 5873 5873 5873 5873 5874 5874 5875 5876 5876 5876 5876 5877 5878 5878 5879 5880 5880 5881 5882 5882 5882 5882 5883 5883 5883 5883 5882 5881 5881 5881 5880 5880 5878 5877 5875 5873 5872 5870 5869 5867 5866 5865 5863 5862 5860 5859 5857 5856 5854 5852 5851 5849 5846 5844 5842 5839 5837 5835 5834 5831 5829 5827 5826 5823 5822 5820 5817 5815 5813 5812 5811 5810 5808 5805 5804 5802 5800 5798 5796
5866 5867 5869 5870 5870 5870 5871 5871 5871 5872 5872 5872 5873 5873 5874 5874 5875 5875 5876 5877 5877 5877 5878 5879 5880 5880 5880 5881 5880 5880 5880 5880 5880 5879 5878 5878 5877 5877 5875 5874 5873 5871 5869 5867 5865 5863 5862 5861 5860 5858 5857 5855 5853 5852 5850 5849 5847 5845 5842 5840 5837 5835 5833 5831 5828 5826 5824 5822 5821 5819 5817 5814 5811 5809 5807 5806 5805 5804 5802 5800 5797 5796 5793 5791 5790
5864 5865 5866 5867 5868 5869 5869 5869 5870 5870 5870 5871 5870 5871 5871 5872 5873 5874 5874 5874 5874 5875 5876 5877 5877 5878 5878 5878 5878 5878 5877 5877 5877 5876 5875 5875 5874 5873 5872 5871 5870 5868 5866 5863 5861 5859 5858 5857 5856 5854 5853 5851 5849 5848 5846 5844 5843 5840 5838 5835 5833 5830 5828 5826 5823 5822 5819 5817 5816 5815 5812 5808 5805 5803 5802 5800 5799 5797 5795 5793 5791 5789 5787 5785 5784
5861 5862 5863 5864 5865 5866 5867 5867 5868 5868 5868 5868 5868 5868 5869 5870 5871 5871 5871 5871 5872 5873 5874 5874 5875 5875 5876 5875 5875 5875 5875 5875 5874 5873 5872 5871 5870 5869 5868 5867 5866 5864 5862 5860 5857 5856 5855 5853 5852 5850 5849 5847 5845 5844 5842 5840 5838 5836 5834 5831 5828 5825 5823 5820 5819 5817 5814 5812 5812 5809 5806 5804 5802 5799 5797 5794 5792 5791 5789 5787 5785 5782 5780 5778 5777
5858 5859 5860 5861 5862 5863 5864 5865 5865 5866 5866 5866 5866 5866 5867 5867 5868 5868 5868 5869 5870 5871 5872 5872 5873 5873 5873 5873 5872 5872 5872 5872 5871 5870 5869 5867 5866 5865 5864 5862 5861 5860 5858 5856 5854 5853 5852 5850 5848 5847 5845 5843 5841 5839 5838 5836 5834 5832 5830 5826 5823 5820 5818 5815 5814 5813 5810 5807 5806 5803 5802 5801 5798 5795 5792 5789 5786 5784 5783 5781 5778 5776 5774 5772 5769
5854 5856 5857 5858 5859 5860 5861 5862 5862 5862 5862 5863 5864 5864 5864 5865 5865 5865 5866 5866 5867 5868 5869 5870 5871 5871 5870 5870 5870 5870 5869 5868 5867 5866 5865 5863 5862 5860 5858 5857 5857 5857 5855 5853 5851 5850 5848 5846 5845 5843 5841 5839 5837 5835 5833 5831 5830 5828 5825 5821 5818 5816 5813 5810 5809 5808 5805 5801 5799 5798 5797 5795 5792 5789 5786 5783 5780 5778 5776 5774 5772 5769 5767 5765 5762
5849 5851 5853 5854 5855 5856 5857 5858 5858 5858 5859 5859 5861 5861 5861 5862 5863 5863 5863 5863 5865 5866 5867 5868 5868 5868 5867 5867 5867 5867 5866 5865 5864 5863 5861 5860 5858 5856 5854 5854 5854 5853 5852 5850 5848 5847 5844 5842 5841 5839 5837 5834 5832 5830 5829 5827 5826 5824 5821 5817 5814 5811 5807 5805 5804 5802 5798 5794 5793 5792 5791 5790 5787 5784 5780 5777 5775 5772 5770 5768 5765 5761 5759 5756 5754
5844 5846 5848 5850 5851 5851 5852 5853 5853 5854 5855 5856 5857 5858 5858 5859 5859 5860 5860 5861 5862 5863 5864 5864 5864 5864 5864 5864 5864 5863 5862 5861 5860 5859 5858 5857 5855 5853 5853 5853 5851 5850 5849 5848 5845 5843 5840 5838 5836 5834 5832 5829 5827 5826 5824 5822 5821 5819 5816 5813 5810 5806 5803 5801 5799 5796 5792 5790 5788 5786 5785 5783 5781 5778 5775 5772 5770 5767 5764 5761 5757 5754 5751 5748 5746
5839 5841 5843 5844 5845 5846 5846 5846 5847 5848 5850 5852 5853 5854 5854 5855 5855 5856 5856 5857 5858 5859 5859 5859 5860 5860 5861 5860 5860 5859 5859 5858 5857 5855 5854 5854 5852 5850 5850 5849 5847 5846 5845 5843 5841 5838 5836 5834 5831 5829 5827 5824 5823 5821 5819 5818 5816 5815 5812 5809 5805 5802 5800 5798 5795 5793 5791 5787 5784 5781 5779 5777 5775 5772 5769 5767 5764 5760 5757 5753 5750 5747 5744 5741 5738
5835 5836 5837 5838 5839 5840 5840 5840 5841 5842 5845 5847 5848 5849 5849 5850 5850 5851 5852 5853 5854 5854 5855 5856 5856 5857 5856 5856 5855 5855 5855 5855 5853 5852 5851 5850 5849 5848 5847 5845 5843 5842 5840 5838 5836 5834 5832 5829 5827 5824 5822 5820 5818 5816 5815 5813 5812 5810 5807 5804 5801 5798 5795 5793 5791 5789 5787 5784 5780 5777 5774 5772 5769 5767 5764 5760 5757 5754 5750 5747 5743 5740 5737 5734 5731
5830 5830 5831 5831 5833 5834 5834 5835 5835 5837 5839 5841 5842 5843 5843 5844 5845 5847 5848 5848 5849 5850 5851 5851 5852 5852 5852 5851 5851 5852 5852 5851 5849 5848 5847 5846 5845 5844 5843 5841 5840 5838 5837 5835 5833 5830 5827 5824 5821 5818 5817 5815 5814 5812 5810 5808 5807 5805 5802 5800 5797 5794 5791 5788 5785 5784 5782 5779 5776 5773 5769 5766 5763 5760 5756 5753 5750 5747 5743 5740 5737 5734 5731 5729 5726
5823 5824 5825 5826 5827 5828 5829 5829 5829 5831 5832 5833 5835 5836 5838 5839 5840 5841 5842 5843 5844 5845 5846 5846 5847 5847 5847 5847 5848 5848 5848 5847 5845 5844 5843 5842 5841 5840 5839 5838 5836 5835 5833 5831 5828 5826 5823 5819 5816 5814 5812 5811 5809 5808 5806 5803 5801 5800 5798 5795 5792 5789 5787 5784 5781 5778 5775 5772 5769 5766 5763 5760 5756 5752 5749 5746 5743 5740 5737 5735 5732 5729 5726 5723 5720
5817 5818 5819 5820 5821 5823 5823 5822 5822 5824 5826 5827 5828 5830 5831 5832 5833 5834 5836 5837 5838 5840 5840 5841 5841 5842 5842 5843 5843 5843 5843 5842 5841 5840 5839 5838 5837 5836 5834 5833 5832 5831 5828 5826 5824 5821 5819 5815 5812 5810 5808 5806 5804 5803 5801 5798 5796 5795 5793 5790 5787 5785 5782 5779 5776 5773 5770 5766 5763 5760 5757 5754 5750 5746 5743 5741 5738 5735 5733 5730 5727 5724 5721 5718 5714
5810 5811 5812 5812 5814 5816 5818 5816 5815 5816 5818 5820 5821 5822 5823 5824 5825 5827 5829 5831 5832 5833 5834 5835 5836 5836 5837 5838 5838 5838 5838 5837 5836 5835 5834 5834 5833 5831 5829 5828 5827 5826 5824 5822 5819 5817 5814 5811 5809 5806 5804 5801 5799 5797 5796 5794 5792 5789 5787 5784 5782 5779 5776 5774 5771 5768 5765 5762 5759 5756 5752 5749 5746 5743 5740 5737 5735 5732 5729 5726 5723 5720 5717 5713 5709
5802 5803 5804 5804 5806 5809 5811 5811 5811 5811 5812 5813 5814 5815 5817 5818 5819 5820 5822 5824 5826 5827 5828 5829 5830 5831 5832 5833 5833 5833 5833 5832 5831 5830 5829 5829 5828 5826 5824 5823 5823 5821 5819 5817 5814 5812 5809 5807 5804 5802 5799 5797 5794 5792 5790 5788 5786 5784 5782 5779 5776 5773 5771 5768 5765 5762 5759 5756 5754 5750 5747 5744 5742 5739 5736 5734 5731 5729 5726 5723 5720 5716 5713 5709 5705
5794 5795 5797 5798 5799 5801 5802 5803 5805 5806 5807 5808 5808 5809 5810 5811 5812 5813 5813 5814 5818 5821 5821 5822 5824 5826 5827 5827 5827 5827 5827 5826 5825 5824 5824 5824 5822 5821 5819 5818 5817 5816 5814 5812 5809 5807 5805 5802 5800 5797 5795 5792 5789 5787 5785 5783 5781 5779 5776 5773 5771 5768 5765 5762 5760 5757 5754 5751 5748 5745 5742 5740 5737 5735 5733 5730 5727 5725 5723 5719 5716 5712 5708 5705 5700
5787 5787 5789 5791 5792 5793 5793 5794 5795 5796 5798 5800 5801 5802 5803 5804 5804 5804 5804 5805 5809 5811 5812 5815 5818 5819 5820 5820 5820 5820 5820 5820 5819 5819 5818 5818 5817 5815 5814 5813 5812 5811 5809 5806 5804 5802 5800 5798 5795 5793 5790 5788 5785 5782 5780 5778 5776 5773 5771 5768 5766 5763 5760 5758 5755 5752 5749 5746 5743 5740 5737 5735 5733 5731 5729 5727 5724 5722 5719 5716 5712 5708 5704 5700 5696
5780 5780 5782 5783 5784 5784 5785 5785 5786 5786 5788 5790 5792 5793 5795 5797 5797 5796 5795 5797 5799 5800 5803 5806 5809 5811 5811 5812 5812 5813 5813 5813 5813 5812 5812 5812 5811 5810 5809 5808 5807 5805 5803 5801 5799 5797 5795 5793 5790 5788 5786 5783 5781 5778 5776 5773 5771 5769 5766 5764 5761 5758 5756 5753 5750 5747 5744 5741 5738 5736 5734 5732 5730 5728 5726 5723 5721 5718 5715 5712 5709 5705 5700 5696 5692
5772 5773 5773 5773 5773 5774 5775 5775 5776 5777 5778 5779 5781 5783 5786 5789 5790 5787 5784 5783 5785 5788 5792 5796 5798 5800 5801 5802 5804 5806 5806 5806 5806 5806 5806 5806 5805 5804 5803 5803 5802 5800 5798 5796 5794 5792 5790 5788 5786 5783 5781 5778 5776 5774 5771 5769 5767 5764 5762 5759 5756 5754 5751 5748 5745 5742 5739 5736 5734 5732 5730 5728 5726 5725 5722 5720 5717 5714 5711 5708 5705 5701 5697 5693 5689
5765 5764 5764 5764 5764 5764 5765 5765 5766 5766 5767 5769 5771 5773 5775 5778 5778 5776 5773 5773 5774 5776 5778 5783 5786 5788 5790 5792 5796 5798 5798 5798 5799 5800 5800 5800 5798 5798 5797 5797 5796 5794 5793 5790 5788 5786 5785 5783 5781 5779 5776 5774 5771 5769 5767 5764 5762 5759 5757 5754 5751 5749 5746 5743 5741 5738 5735 5733 5731 5729 5727 5725 5723 5721 5719 5716 5713 5710 5707 5704 5701 5697 5693 5689 5685
5755 5754 5755 5755 5755 5755 5754 5754 5754 5754 5755 5758 5761 5763 5763 5763 5763 5764 5766 5769 5771 5768 5767 5771 5775 5778 5780 5785 5789 5790 5790 5791 5792 5793 5793 5792 5791 5791 5791 5791 5790 5789 5787 5784 5782 5781 5779 5778 5776 5774 5772 5769 5767 5765 5762 5760 5757 5754 5752 5749 5746 5744 5741 5739 5737 5734 5732 5730 5728 5726 5724 5722 5720 5718 5716 5713 5710 5707 5704 5701 5698 5694 5690 5686 5682
5745 5745 5745 5745 5745 5744 5742 5742 5741 5740 5741 5743 5746 5748 5749 5749 5749 5751 5755 5761 5765 5764 5763 5763 5766 5769 5773 5778 5781 5783 5784 5785 5785 5785 5785 5785 5784 5784 5785 5784 5783 5782 5780 5779 5777 5776 5774 5773 5771 5769 5767 5765 5763 5760 5758 5755 5752 5750 5747 5744 5742 5739 5737 5735 5733 5731 5729 5727 5725 5723 5721 5720 5718 5715 5713 5710 5707 5704 5701 5698 5694 5691 5687 5683 5679
5736 5736 5736 5735 5734 5731 5729 5726 5723 5722 5724 5726 5729 5732 5733 5734 5736 5738 5741 5748 5755 5759 5760 5759 5760 5763 5768 5772 5775 5776 5777 5777 5777 5778 5778 5777 5777 5778 5779 5778 5776 5776 5774 5773 5772 5770 5769 5768 5766 5764 5762 5760 5758 5756 5754 5751 5748 5746 5743 5740 5737 5735 5732 5730 5728 5727 5725 5723 5721 5720 5719 5717 5714 5712 5710 5707 5704 5701 5698 5695 5691 5688 5684 5680 5676
5728 5727 5725 5723 5722 5720 5716 5707 5700 5700 5705 5708 5711 5714 5717 5719 5721 5722 5725 5734 5744 5751 5754 5754 5755 5759 5763 5766 5768 5769 5769 5769 5770 5770 5770 5770 5771 5772 5772 5771 5770 5770 5769 5767 5766 5765 5764 5763 5761 5759 5757 5755 5754 5752 5749 5746 5744 5741 5738 5736 5733 5731 5728 5726 5725 5723 5721 5720 5719 5717 5716 5714 5712 5709 5707 5704 5701 5698 5695 5692 5689 5685 5681 5678 5673
5721 5719 5717 5714 5712 5709 5703 5693 5687 5688 5693 5696 5700 5702 5704 5707 5709 5708 5710 5721 5733 5741 5745 5747 5750 5754 5758 5760 5761 5761 5762 5762 5763 5762 5762 5764 5766 5766 5765 5764 5764 5764 5763 5762 5761 5760 5759 5757 5756 5754 5752 5751 5749 5747 5744 5741 5739 5737 5734 5731 5729 5727 5725 5723 5722 5720 5719 5718 5717 5716 5714 5712 5710 5707 5704 5701 5698 5695 5692 5689 5686 5683 5679 5675 5671
5714 5712 5710 5707 5704 5700 5693 5687 5687 5689 5689 5689 5692 5694 5696 5699 5700 5700 5704 5713 5723 5731 5737 5741 5745 5748 5751 5752 5753 5754 5755 5755 5755 5755 5756 5759 5760 5759 5758 5758 5758 5757 5757 5756 5755 5755 5754 5752 5751 5749 5748 5746 5744 5742 5739 5737 5734 5732 5730 5727 5725 5723 5722 5721 5719 5718 5717 5716 5715 5714 5712 5710 5707 5704 5702 5698 5695 5692 5690 5686 5683 5680 5676 5673 5669
5707 5705 5702 5698 5695 5692 5686 5684 5688 5689 5684 5681 5684 5687 5688 5691 5695 5698 5703 5710 5717 5726 5733 5737 5739 5742 5744 5745 5746 5747 5747 5747 5748 5750 5752 5753 5752 5752 5751 5751 5751 5751 5750 5750 5750 5749 5748 5747 5745 5744 5743 5741 5739 5736 5734 5732 5730 5728 5726 5724 5722 5720 5719 5718 5717 5716 5715 5714 5713 5711 5709 5707 5704 5702 5699 5696 5693 5690 5687 5684 5681 5677 5674 5670 5667
5701 5700 5697 5694 5691 5687 5682 5681 5683 5683 5678 5676 5678 5680 5682 5686 5691 5696 5702 5709 5718 5725 5730 5732 5733 5736 5738 5739 5740 5740 5740 5741 5743 5745 5746 5745 5745 5745 5745 5744 5744 5745 5745 5745 5744 5743 5742 5741 5740 5739 5737 5736 5734 5731 5729 5727 5725 5723 5722 5720 5719 5717 5716 5715 5714 5713 5712 5711 5710 5708 5706 5704 5701 5699 5696 5693 5690 5688 5685 5681 5678 5675 5671 5668 5664
5695 5694 5693 5692 5690 5688 5684 5682 5681 5681 5680 5679 5679 5680 5682 5686 5690 5696 5703 5711 5718 5722 5724 5726 5728 5730 5732 5733 5733 5733 5735 5737 5738 5739 5739 5738 5738 5739 5738 5738 5738 5739 5739 5739 5738 5738 5737 5736 5735 5733 5732 5730 5728 5726 5724 5722 5720 5719 5718 5716 5715 5714 5713 5712 5711 5710 5709 5708 5707 5705 5703 5701 5699 5696 5694 5691 5688 5685 5682 5679 5676 5672 5669 5665 5662
5692 5690 5690 5689 5689 5687 5685 5683 5682 5683 5683 5684 5685 5686 5688 5690 5693 5697 5703 5709 5713 5716 5718 5720 5722 5724 5725 5726 5726 5728 5731 5732 5732 5732 5732 5732 5732 5732 5731 5732 5733 5733 5733 5733 5732 5732 5731 5730 5729 5728 5726 5725 5723 5721 5718 5716 5715 5714 5714 5713 5711 5710 5709 5708 5708 5707 5706 5705 5704 5702 5701 5698 5696 5694 5691 5688 5686 5683 5680 5677 5674 5670 5667 5663 5660
5689 5688 5687 5687 5687 5686 5685 5683 5683 5683 5684 5685 5687 5689 5691 5693 5695 5697 5701 5704 5707 5710 5713 5715 5717 5718 5719 5720 5722 5724 5726 5726 5726 5726 5726 5725 5725 5725 5726 5726 5727 5727 5727 5727 5726 5726 5725 5724 5723 5722 5721 5719 5717 5715 5713 5711 5711 5710 5710 5709 5708 5707 5706 5705 5704 5704 5703 5702 5701 5699 5698 5696 5693 5691 5689 5686 5683 5681 5678 5675 5672 5668 5665 5662 5659
5687 5687 5686 5685 5684 5684 5684 5683 5683 5683 5684 5685 5687 5689 5691 5693 5695 5697 5699 5701 5703 5706 5709 5711 5712 5713 5714 5716 5717 5718 5718 5718 5719 5719 5719 5719 5719 5719 5720 5720 5721 5721 5721 5721 5721 5720 5719 5718 5718 5717 5715 5714 5712 5709 5707 5707 5706 5706 5706 5705 5704 5703 5702 5701 5701 5700 5699 5699 5698 5696 5695 5693 5691 5688 5686 5683 5681 5678 5676 5673 5670 5667 5663 5660 5657
5684 5684 5684 5683 5682 5682 5682 5682 5682 5683 5683 5684 5686 5688 5690 5692 5694 5696 5698 5699 5701 5702 5704 5705 5706 5707 5708 5709 5711 5711 5712 5712 5712 5712 5712 5712 5713 5713 5714 5715 5715 5715 5715 5715 5715 5715 5714 5713 5712 5711 5710 5708 5705 5703 5702 5702 5702 5702 5702 5701 5700 5699 5698 5698 5697 5697 5696 5696 5695 5693 5692 5690 5688 5686 5683 5681 5679 5676 5674 5671 5668 5665 5662 5659 5655
5681 5681 5681 5681 5680 5680 5680 5680 5680 5681 5681 5683 5684 5685 5687 5689 5691 5693 5694 5696 5697 5698 5698 5699 5700 5700 5701 5703 5703 5704 5705 5705 5705 5705 5705 5706 5707 5708 5709 5709 5709 5709 5709 5709 5709 5709 5708 5707 5707 5705 5704 5702 5699 5698 5697 5697 5697 5697 5697 5697 5696 5695 5695 5694 5694 5694 5693 5692 5692 5691 5689 5687 5685 5683 5681 5679 5677 5674 5672 5669 5666 5663 5660 5657 5654
5676 5678 5679 5679 5678 5678 5677 5678 5678 5678 5679 5680 5681 5682 5683 5685 5686 5688 5689 5690 5690 5691 5692 5692 5693 5694 5695 5695 5696 5697 5697 5698 5698 5698 5699 5700 5701 5702 5703 5703 5703 5703 5704 5704 5703 5703 5702 5702 5701 5700 5698 5696 5694 5693 5692 5693 5693 5693 5693 5692 5692 5691 5691 5691 5691 5690 5690 5689 5689 5688 5686 5685 5683 5681 5679 5677 5674 5672 5669 5667 5664 5661 5659 5656 5653
5671 5673 5675 5676 5675 5674 5674 5675 5675 5676 5676 5677 5678 5679 5679 5680 5681 5683 5683 5684 5684 5685 5685 5686 5686 5687 5687 5688 5689 5689 5690 5690 5691 5693 5694 5695 5696 5697 5697 5697 5697 5698 5698 5698 5698 5697 5697 5696 5695 5694 5692 5690 5689 5688 5688 5689 5689 5689 5689 5688 5688 5687 5687 5687 5687 5687 5687 5686 5686 5685 5683 5682 5680 5678 5676 5674 5672 5670 5667 5665 5662 5660 5657 5654 5651
5667 5668 5670 5671 5671 5670 5671 5671 5672 5672 5673 5673 5674 5674 5674 5675 5677 5678 5678 5678 5677 5678 5678 5678 5679 5680 5680 5681 5682 5683 5684 5685 5686 5688 5689 5690 5691 5691 5692 5692 5692 5692 5692 5692 5692 5692 5691 5690 5689 5688 5687 5685 5684 5684 5685 5685 5684 5684 5684 5684 5684 5683 5683 5684 5684 5684 5684 5683 5683 5682 5681 5679 5678 5676 5674 5672 5670 5667 5665 5663 5661 5658 5655 5653 5650
5662 5663 5664 5665 5666 5666 5667 5668 5668 5669 5669 5669 5670 5670 5671 5672 5673 5674 5674 5673 5673 5672 5672 5672 5674 5675 5675 5676 5677 5678 5679 5680 5681 5682 5683 5684 5685 5686 5686 5686 5686 5687 5687 5686 5686 5686 5685 5684 5683 5683 5681 5680 5680 5680 5681 5680 5680 5680 5680 5680 5680 5679 5679 5680 5680 5680 5680 5680 5679 5679 5678 5676 5675 5673 5671 5669 5667 5665 5663 5661 5658 5656 5654 5651 5648
5658 5659 5659 5660 5661 5662 5663 5663 5664 5664 5665 5665 5666 5666 5668 5669 5669 5669 5670 5670 5670 5669 5669 5670 5671 5672 5672 5673 5674 5674 5674 5675 5676 5677 5678 5679 5680 5680 5681 5681 5681 5681 5681 5680 5680 5679 5679 5678 5678 5677 5676 5676 5676 5676 5676 5676 5676 5676 5676 5676 5676 5676 5676 5676 5676 5676 5676 5676 5676 5675 5675 5673 5672 5670 5669 5667 5665 5663 5661 5659 5656 5654 5652 5649 5646
5654 5654 5654 5655 5656 5657 5658 5658 5658 5660 5661 5662 5663 5663 5664 5665 5665 5665 5665 5665 5666 5666 5666 5667 5668 5668 5668 5669 5669 5670 5670 5671 5672 5672 5673 5674 5674 5675 5675 5675 5675 5675 5675 5674 5674 5673 5673 5673 5673 5672 5671 5671 5671 5671 5671 5671 5671 5671 5672 5672 5672 5672 5672 5672 5673 5673 5673 5673 5672 5672 5671 5670 5669 5667 5666 5664 5662 5660 5658 5656 5654 5652 5650 5647 5645
5648 5649 5649 5650 5651 5652 5653 5653 5654 5655 5657 5658 5659 5659 5660 5660 5661 5661 5661 5661 5661 5661 5662 5663 5663 5663 5664 5664 5664 5665 5666 5666 5667 5667 5668 5668 5669 5669 5669 5669 5669 5669 5669 5669 5668 5668 5667 5667 5667 5667 5666 5666 5666 5667 5667 5667 5667 5667 5667 5667 5667 5668 5668 5668 5669 5669 5669 5669 5669 5668 5668 5667 5666 5664 5663 5661 5659 5658 5656 5654 5652 5650 5648 5645 5643